Location: Unspecified
(0.0000°N, 0.0000°E)
Time: 10:54:19
(UTC+00:00)

Tiangong 2 - Visible Passes

Search period start: 23 September 2017 00:00
Search period end: 03 October 2017 00:00
Orbit: 389 x 393 km, 42.8° (Epoch: 22 September)

Date Brightness Start Highest point End Pass type
(mag) Time Alt. Az. Time Alt. Az. Time Alt. Az.
25 Sep 3.1 19:26:02 10° NW 19:27:30 25° NW 19:27:30 25° NW visible
26 Sep 2.0 18:28:55 10° NNW 18:31:47 30° NE 18:33:47 16° E visible
27 Sep 3.2 19:08:19 10° WNW 19:11:03 26° SW 19:12:35 18° S visible
28 Sep 1.3 18:10:24 10° NW 18:13:34 73° SW 18:16:46 10° SE visible
30 Sep 3.4 04:44:46 10° S 04:47:23 23° SE 04:50:00 10° E visible
01 Oct 1.9 05:23:40 10° WSW 05:26:37 34° NW 05:29:33 10° NNE visible
02 Oct 1.1 04:29:07 79° SE 04:29:07 79° SE 04:32:18 10° NE visible
